FW1340 Weather Reports


time (UTC)temp
C
wind
direction
speed
KPH
gust
KPH
rain 1hr
cm
rain 24hr
cm
rain mn
cm
humidity
%
barometer
mb
20260901070100 15 241 0.0 0.0 0.00 0.00 0.00 78 1013.4
20260901064553 15 246 0.0 0.0 0.00 0.00 0.00 78 1013.4
20260901063051 15 258 0.0 0.0 0.00 0.00 0.00 77 1013.4
20260901061552 15 252 0.0 0.0 0.00 0.00 0.00 78 1013.4
20260901060051 15 228 0.0 0.0 0.00 0.00 0.00 78 1013.4
20260901054550 15 256 0.0 0.0 0.00 0.00 0.00 78 1013.3
20260901053105 15 272 0.0 0.0 0.00 0.00 0.00 77 1013.1
20260901051549 15 286 0.0 0.0 0.00 0.00 0.00 77 1013.1
20260901050048 15 294 0.0 0.0 0.00 0.00 0.00 77 1013.0
20260901044614 16 273 0.0 0.0 0.00 0.00 0.00 76 1013.0
20260901043046 16 248 0.0 0.0 0.00 0.00 0.00 76 1012.9
20260901041546 16 286 0.0 0.0 0.00 0.00 0.00 76 1012.8
20260901040045 16 236 0.0 0.0 0.00 0.00 0.00 76 1012.5
20260901034552 16 269 0.0 0.0 0.00 0.00 0.00 76 1012.3
20260901033046 16 260 0.0 0.0 0.00 0.00 0.00 75 1012.1
20260901031548 16 270 0.0 0.0 0.00 0.00 0.00 74 1011.9
20260901030046 17 267 0.0 0.0 0.00 0.00 0.00 73 1011.7
20260901024544 17 229 0.0 0.0 0.00 0.00 0.00 72 1011.6
20260901023043 17 248 0.0 0.0 0.00 0.00 0.00 70 1011.7
20260901021606 18 250 0.0 0.0 0.00 0.00 0.00 68 1011.6
20260901020101 19 262 0.0 0.0 0.00 0.00 0.00 66 1011.5
20260901014543 20 275 0.0 0.0 0.00 0.00 0.00 63 1011.4
20260901013043 20 265 0.0 0.0 0.00 0.00 0.00 63 1011.3
20260901011639 21 265 0.0 0.0 0.00 0.00 0.00 61 1011.2
20260901010042 21 248 0.0 0.0 0.00 0.00 0.00 58 1011.1
20260901004541 22 267 0.0 0.0 0.00 0.00 0.00 57 1011.1
20260901003043 22 269 0.0 0.0 0.00 0.00 0.00 56 1011.2
20260901001550 23 276 0.0 0.0 0.00 0.00 0.00 55 1011.2
20260901000044 23 263 0.0 0.0 0.00 0.00 0.00 54 1011.2
20260831234547 23 279 0.0 0.0 0.00 0.00 0.00 53 1011.1
20260831233044 24 268 0.0 0.0 0.00 0.00 0.00 52 1011.2
20260831231535 25 274 0.0 0.0 0.00 0.00 0.00 50 1011.2
20260831230034 25 246 0.0 0.0 0.00 0.00 0.00 50 1011.3
20260831224534 25 262 0.0 0.0 0.00 0.00 0.00 50 1011.4
20260831223034 25 236 0.0 0.0 0.00 0.00 0.00 49 1011.5
20260831221532 25 252 0.0 0.0 0.00 0.00 0.00 50 1011.5
20260831220034 25 266 0.0 0.0 0.00 0.00 0.00 51 1011.7
20260831214535 26 263 0.0 0.0 0.00 0.00 0.00 49 1011.7
20260831213037 26 309 0.0 0.0 0.00 0.00 0.00 48 1011.9
20260831211528 26 234 0.0 0.0 0.00 0.00 0.00 46 1012.1
20260831210025 25 200 0.0 0.0 0.00 0.00 0.00 47 1012.0
20260831204522 25 221 0.0 0.0 0.00 0.00 0.00 48 1012.1
20260831203019 25 263 0.0 0.0 0.00 0.00 0.00 50 1012.3
20260831201517 24 241 0.0 0.0 0.00 0.00 0.00 51 1012.3
20260831200021 23 254 0.0 0.0 0.00 0.00 0.00 53 1012.5
20260831194515 23 261 0.0 0.0 0.00 0.00 0.00 52 1012.7
20260831193009 23 255 0.0 0.0 0.00 0.00 0.00 55 1012.8
20260831191504 22 293 0.0 0.0 0.00 0.00 0.00 57 1013.0
20260831190005 22 265 0.0 0.0 0.00 0.00 0.00 59 1013.0
20260831184628 21 238 0.0 0.0 0.00 0.00 0.00 59 1013.1
20260831183103 21 272 0.0 0.0 0.00 0.00 0.00 60 1013.2
20260831181551 20 238 0.0 0.0 0.00 0.00 0.00 64 1013.1
20260831180048 20 260 0.0 0.0 0.00 0.00 0.00 66 1013.2
20260831174549 19 267 0.0 0.0 0.00 0.00 0.00 68 1013.2
20260831173054 19 248 0.0 0.0 0.00 0.00 0.00 68 1013.1
20260831171539 18 273 0.0 0.0 0.00 0.00 0.00 69 1013.0
20260831170037 18 273 0.0 0.0 0.00 0.00 0.00 69 1012.8
20260831164537 18 249 0.0 0.0 0.00 0.00 0.00 71 1012.8
20260831163031 18 261 0.0 0.0 0.00 0.00 0.00 73 1012.8
20260831161527 17 252 0.0 0.0 0.00 0.00 0.00 75 1012.8
20260831160029 17 275 0.0 0.0 0.00 0.00 0.00 77 1012.8
20260831154521 16 277 0.0 0.0 0.00 0.00 0.00 79 1012.7
20260831153016 16 269 0.0 0.0 0.00 0.00 0.00 81 1012.8
20260831151515 15 259 0.0 0.0 0.00 0.00 0.00 84 1012.7
20260831150014 14 277 0.0 0.0 0.00 0.00 0.00 87 1012.6
20260831144517 13 295 0.0 0.0 0.00 0.00 0.00 90 1012.3
20260831143005 11 74 0.0 0.0 0.00 0.00 0.00 90 1012.2
20260831141501 11 74 0.0 0.0 0.00 0.00 0.00 88 1012.0
20260831140056 10 74 0.0 0.0 0.00 0.00 0.00 85 1011.8
20260831134558 11 305 0.0 0.0 0.00 0.00 0.00 83 1011.6
20260831133049 11 305 0.0 0.0 0.00 0.00 0.00 83 1011.4
20260831131547 12 305 0.0 0.0 0.00 0.00 0.00 84 1011.3
20260831130049 12 296 0.0 0.0 0.00 0.00 0.00 85 1011.4
20260831124542 12 315 0.0 0.0 0.00 0.00 0.00 85 1011.1
20260831123039 12 291 0.0 0.0 0.00 0.00 0.00 85 1011.0
20260831121538 12 284 0.0 0.0 0.00 0.00 0.00 84 1010.9
20260831120037 12 273 0.0 0.0 0.00 0.00 0.00 84 1010.9
20260831114535 12 294 0.0 0.0 0.00 0.00 0.00 83 1010.8
20260831113032 13 13 0.0 0.0 0.00 0.00 0.00 80 1010.7
20260831111539 13 13 0.0 0.0 0.00 0.00 0.00 79 1010.7
20260831110027 13 13 0.0 0.0 0.00 0.00 0.00 80 1010.7
20260831104530 13 13 0.0 0.0 0.00 0.00 0.00 81 1010.8
20260831103024 13 13 0.0 0.0 0.00 0.00 0.00 82 1010.6
20260831101524 13 13 0.0 0.0 0.00 0.00 0.00 82 1010.6
20260831100021 13 19 0.0 0.0 0.00 0.00 0.00 82 1010.6
20260831094525 14 17 0.0 0.0 0.00 0.00 0.00 80 1010.4
20260831093017 14 12 0.0 0.0 0.00 0.00 0.00 80 1010.4
20260831091517 15 9 0.0 0.0 0.00 0.00 0.00 80 1010.6
20260831090016 15 116 0.0 0.0 0.00 0.00 0.00 79 1010.4
20260831084525 15 116 0.0 0.0 0.00 0.00 0.00 79 1010.5
20260831083009 15 143 0.0 0.0 0.00 0.00 0.00 76 1010.5
20260831081516 15 143 0.0 0.0 0.00 0.00 0.00 77 1010.7
20260831080005 16 143 0.0 0.0 0.00 0.00 0.00 76 1010.7
20260831074517 16 142 0.0 0.0 0.00 0.00 0.00 76 1010.8
20260831073001 16 142 0.0 0.0 0.00 0.00 0.00 77 1010.7
20260831071601 16 190 0.0 0.0 0.00 0.00 0.00 75 1010.7